,,,PA_Meas_PMT16A,,PR_Meas_QMR101_102,,RH_Meas_QMH101,,SR_Meas_QMS101,,TA_Meas_QMH101,,GenWind,,GenWind,
date,time,status,PA,status,PR,status,RH,status,SR,status,TA,status,DirAvg,status,SpdAvg,
2009-05-24, 00:00:05,VALID,1008.08,VALID,0,VALID,89.656,VALID,0,VALID,24.3956,VALID,33,VALID,0,
2009-05-24, 00:01:05,VALID,1008.09,VALID,0,VALID,89.6255,VALID,0.105969,VALID,24.3742,VALID,33,VALID,0,
2009-05-24, 00:02:05,VALID,1008.05,VALID,0,VALID,89.595,VALID,0,VALID,24.3937,VALID,33,VALID,0,
2009-05-24, 00:03:05,VALID,1008.04,VALID,0,VALID,89.5721,VALID,0,VALID,24.3937,VALID,33,VALID,0,
2009-05-24, 00:04:05,VALID,1008.03,VALID,0,VALID,89.5492,VALID,0,VALID,24.3742,VALID,33,VALID,0,
2009-05-24, 00:05:05,VALID,1007.99,VALID,0,VALID,89.5263,VALID,0,VALID,24.3742,VALID,33,VALID,0,
2009-05-24, 00:06:05,VALID,1007.94,VALID,0,VALID,89.5111,VALID,0,VALID,24.3547,VALID,33,VALID,0,
2009-05-24, 00:07:05,VALID,1007.93,VALID,0,VALID,89.4653,VALID,0,VALID,24.3352,VALID,33,VALID,0,
2009-05-24, 00:08:05,VALID,1007.88,VALID,0,VALID,89.4653,VALID,0.105969,VALID,24.3352,VALID,33,VALID,0,
2009-05-24, 00:09:05,VALID,1007.87,VALID,0,VALID,89.473,VALID,0.105969,VALID,24.3371,VALID,33,VALID,0,
2009-05-24, 00:10:05,VALID,1007.89,VALID,0,VALID,89.4501,VALID,0,VALID,24.2749,VALID,33,VALID,0,
2009-05-24, 00:11:05,VALID,1007.89,VALID,0,VALID,89.4348,VALID,0.105969,VALID,24.2963,VALID,33,VALID,0,
2009-05-24, 00:12:05,VALID,1007.89,VALID,0,VALID,89.4577,VALID,0.105969,VALID,24.2768,VALID,33,VALID,0,
2009-05-24, 00:13:05,VALID,1007.91,VALID,0,VALID,89.4501,VALID,0,VALID,24.2573,VALID,33,VALID,0,
2009-05-24, 00:14:05,VALID,1007.88,VALID,0,VALID,89.4577,VALID,0.105969,VALID,24.2573,VALID,33,VALID,0,
2009-05-24, 00:15:05,VALID,1007.86,VALID,0,VALID,89.4653,VALID,0.105969,VALID,24.2573,VALID,33,VALID,0,
2009-05-24, 00:16:05,VALID,1007.82,VALID,0,VALID,89.4425,VALID,0,VALID,24.2378,VALID,33,VALID,0,
2009-05-24, 00:17:05,VALID,1007.77,VALID,0,VALID,89.4425,VALID,0,VALID,24.2378,VALID,33,VALID,0,
2009-05-24, 00:18:05,VALID,1007.76,VALID,0,VALID,89.4425,VALID,0.105969,VALID,24.2183,VALID,33,VALID,0,
2009-05-24, 00:19:05,VALID,1007.71,VALID,0,VALID,89.4425,VALID,0,VALID,24.2183,VALID,33,VALID,0,
2009-05-24, 00:20:05,VALID,1007.7,VALID,0,VALID,89.4425,VALID,0.105969,VALID,24.1988,VALID,33,VALID,0,
2009-05-24, 00:21:05,VALID,1007.72,VALID,0,VALID,89.4577,VALID,0.105969,VALID,24.1988,VALID,33,VALID,0,
2009-05-24, 00:22:05,VALID,1007.73,VALID,0,VALID,89.4501,VALID,0.105969,VALID,24.1775,VALID,33,VALID,0,
2009-05-24, 00:23:05,VALID,1007.72,VALID,0,VALID,89.4806,VALID,0,VALID,24.1793,VALID,33,VALID,0,
2009-05-24, 00:24:05,VALID,1007.71,VALID,0,VALID,89.4882,VALID,0,VALID,24.2007,VALID,33,VALID,0,
2009-05-24, 00:25:05,VALID,1007.72,VALID,0,VALID,89.5035,VALID,0,VALID,24.1599,VALID,33,VALID,0,
2009-05-24, 00:26:05,VALID,1007.72,VALID,0,VALID,89.5111,VALID,0.105969,VALID,24.1404,VALID,33,VALID,0,
2009-05-24, 00:27:05,VALID,1007.73,VALID,0,VALID,89.5111,VALID,0,VALID,24.1617,VALID,33,VALID,0,
2009-05-24, 00:28:05,VALID,1007.71,VALID,0,VALID,89.5263,VALID,0,VALID,24.1209,VALID,33,VALID,0,
2009-05-24, 00:29:05,VALID,1007.74,VALID,0,VALID,89.5416,VALID,0,VALID,24.1422,VALID,33,VALID,0,
2009-05-24, 00:30:05,VALID,1007.73,VALID,0,VALID,89.5492,VALID,0,VALID,24.1014,VALID,47,VALID,0,
2009-05-24, 00:31:05,VALID,1007.71,VALID,0,VALID,89.534,VALID,0,VALID,24.1014,VALID,54,VALID,0,
2009-05-24, 00:32:05,VALID,1007.69,VALID,0,VALID,89.5187,VALID,0,VALID,24.1209,VALID,54,VALID,0,
2009-05-24, 00:33:05,VALID,1007.66,VALID,0,VALID,89.5187,VALID,0,VALID,24.1209,VALID,83,VALID,0,
2009-05-24, 00:34:05,VALID,1007.67,VALID,0,VALID,89.4882,VALID,0,VALID,24.1191,VALID,83,VALID,0,
2009-05-24, 00:35:05,VALID,1007.64,VALID,0,VALID,89.4806,VALID,0,VALID,24.1404,VALID,93,VALID,0,
2009-05-24, 00:36:05,VALID,1007.64,VALID,0,VALID,89.4425,VALID,0,VALID,24.1404,VALID,92,VALID,0,
2009-05-24, 00:37:05,VALID,1007.66,VALID,0,VALID,89.3891,VALID,0.105969,VALID,24.1209,VALID,90,VALID,0,
2009-05-24, 00:38:05,VALID,1007.64,VALID,0,VALID,89.3357,VALID,0,VALID,24.1404,VALID,90,VALID,0,
2009-05-24, 00:39:05,VALID,1007.63,VALID,0,VALID,89.3204,VALID,0.105969,VALID,24.1422,VALID,90,VALID,0,
2009-05-24, 00:40:05,VALID,1007.61,VALID,0,VALID,89.2899,VALID,0,VALID,24.1404,VALID,90,VALID,0,
2009-05-24, 00:41:05,VALID,1007.62,VALID,0,VALID,89.2366,VALID,0,VALID,24.1014,VALID,90,VALID,0,
2009-05-24, 00:42:05,VALID,1007.61,VALID,0,VALID,89.1984,VALID,0,VALID,24.1227,VALID,90,VALID,0,
2009-05-24, 00:43:05,VALID,1007.6,VALID,0,VALID,89.1603,VALID,0,VALID,24.1014,VALID,90,VALID,0,
2009-05-24, 00:44:05,VALID,1007.62,VALID,0,VALID,89.1374,VALID,0,VALID,24.1014,VALID,90,VALID,0,
2009-05-24, 00:45:05,VALID,1007.62,VALID,0,VALID,89.1069,VALID,0,VALID,24.1014,VALID,90,VALID,0,
2009-05-24, 00:46:05,VALID,1007.61,VALID,0,VALID,89.1146,VALID,0,VALID,24.1014,VALID,90,VALID,0,
2009-05-24, 00:47:05,VALID,1007.6,VALID,0,VALID,89.1222,VALID,0,VALID,24.1014,VALID,90,VALID,0,
2009-05-24, 00:48:04,VALID,1007.56,VALID,0,VALID,89.1374,VALID,0.105969,VALID,24.1209,VALID,90,VALID,0,
2009-05-24, 00:49:04,VALID,1007.59,VALID,0,VALID,89.1603,VALID,0,VALID,24.1014,VALID,90,VALID,0,
2009-05-24, 00:50:04,VALID,1007.54,VALID,0,VALID,89.1603,VALID,0.105969,VALID,24.1209,VALID,90,VALID,0,
2009-05-24, 00:51:04,VALID,1007.51,VALID,0,VALID,89.1527,VALID,0,VALID,24.1014,VALID,90,VALID,0,
2009-05-24, 00:52:04,VALID,1007.52,VALID,0,VALID,89.1603,VALID,0,VALID,24.0819,VALID,83,VALID,0,
2009-05-24, 00:53:04,VALID,1007.47,VALID,0,VALID,89.1374,VALID,0,VALID,24.0429,VALID,55,VALID,0,
2009-05-24, 00:54:04,VALID,1007.46,VALID,0,VALID,89.1298,VALID,0.105969,VALID,24.0235,VALID,55,VALID,0,
2009-05-24, 00:55:04,VALID,1007.44,VALID,0,VALID,89.1527,VALID,0,VALID,23.9845,VALID,55,VALID,0,
2009-05-24, 00:56:04,VALID,1007.43,VALID,0,VALID,89.1832,VALID,0,VALID,23.9845,VALID,55,VALID,0,
2009-05-24, 00:57:04,VALID,1007.42,VALID,0,VALID,89.2213,VALID,0,VALID,24.0058,VALID,55,VALID,0,
2009-05-24, 00:58:04,VALID,1007.43,VALID,0,VALID,89.2289,VALID,0,VALID,23.965,VALID,55,VALID,0,
2009-05-24, 00:59:04,VALID,1007.44,VALID,0,VALID,89.2671,VALID,0,VALID,23.9473,VALID,55,VALID,0,
2009-05-24, 01:00:04,VALID,1007.4,VALID,0,VALID,89.2671,VALID,0.105969,VALID,23.8871,VALID,55,VALID,0,
2009-05-24, 01:01:04,VALID,1007.39,VALID,0,VALID,89.2366,VALID,0,VALID,23.8481,VALID,55,VALID,0,
2009-05-24, 01:02:04,VALID,1007.38,VALID,0,VALID,89.2747,VALID,0,VALID,23.8286,VALID,55,VALID,0,
2009-05-24, 01:03:04,VALID,1007.36,VALID,0,VALID,89.3433,VALID,0,VALID,23.8286,VALID,55,VALID,0,
2009-05-24, 01:04:04,VALID,1007.31,VALID,0,VALID,89.3967,VALID,0,VALID,23.8481,VALID,55,VALID,0,
2009-05-24, 01:05:04,VALID,1007.31,VALID,0,VALID,89.4196,VALID,0,VALID,23.8481,VALID,55,VALID,0,
2009-05-24, 01:06:04,VALID,1007.3,VALID,0,VALID,89.473,VALID,0,VALID,23.8286,VALID,55,VALID,0,
2009-05-24, 01:07:04,VALID,1007.27,VALID,0,VALID,89.4425,VALID,0,VALID,23.7701,VALID,55,VALID,0,
2009-05-24, 01:08:04,VALID,1007.27,VALID,0,VALID,89.4272,VALID,0,VALID,23.7312,VALID,55,VALID,0,
2009-05-24, 01:09:04,VALID,1007.26,VALID,0,VALID,89.4348,VALID,0,VALID,23.7117,VALID,55,VALID,0,
2009-05-24, 01:10:04,VALID,1007.24,VALID,0,VALID,89.4196,VALID,0,VALID,23.7117,VALID,55,VALID,0,
2009-05-24, 01:11:04,VALID,1007.24,VALID,0,VALID,89.4501,VALID,0,VALID,23.6922,VALID,55,VALID,0,
2009-05-24, 01:12:04,VALID,1007.24,VALID,0,VALID,89.4577,VALID,0.105969,VALID,23.6922,VALID,55,VALID,0,
2009-05-24, 01:13:04,VALID,1007.23,VALID,0,VALID,89.4653,VALID,0.105969,VALID,23.6922,VALID,55,VALID,0,
2009-05-24, 01:14:04,VALID,1007.22,VALID,0,VALID,89.5035,VALID,0,VALID,23.7135,VALID,55,VALID,0,
2009-05-24, 01:15:04,VALID,1007.22,VALID,0,VALID,89.534,VALID,0,VALID,23.733,VALID,55,VALID,0,
2009-05-24, 01:16:04,VALID,1007.22,VALID,0,VALID,89.5492,VALID,0.105969,VALID,23.7312,VALID,55,VALID,0,
2009-05-24, 01:17:04,VALID,1007.2,VALID,0,VALID,89.5797,VALID,0,VALID,23.7117,VALID,55,VALID,0,
2009-05-24, 01:18:04,VALID,1007.22,VALID,0,VALID,89.6102,VALID,0,VALID,23.733,VALID,55,VALID,0,
2009-05-24, 01:19:04,VALID,1007.2,VALID,0,VALID,89.6255,VALID,0,VALID,23.7135,VALID,55,VALID,0,
2009-05-24, 01:20:04,VALID,1007.18,VALID,0,VALID,89.6255,VALID,0,VALID,23.6922,VALID,55,VALID,0,
2009-05-24, 01:21:04,VALID,1007.18,VALID,0,VALID,89.656,VALID,0.105969,VALID,23.7135,VALID,55,VALID,0,
2009-05-24, 01:22:04,VALID,1007.2,VALID,0,VALID,89.6636,VALID,0,VALID,23.6922,VALID,55,VALID,0,
2009-05-24, 01:23:04,VALID,1007.19,VALID,0,VALID,89.717,VALID,0,VALID,23.694,VALID,55,VALID,0,
2009-05-24, 01:24:04,VALID,1007.22,VALID,0,VALID,89.6941,VALID,0,VALID,23.6922,VALID,55,VALID,0,
2009-05-24, 01:25:04,VALID,1007.23,VALID,0,VALID,89.717,VALID,0,VALID,23.6922,VALID,55,VALID,0,
2009-05-24, 01:26:04,VALID,1007.21,VALID,0,VALID,89.7322,VALID,0.105969,VALID,23.7135,VALID,55,VALID,0,
2009-05-24, 01:27:04,VALID,1007.19,VALID,0,VALID,89.7551,VALID,0.105969,VALID,23.7117,VALID,55,VALID,0,
2009-05-24, 01:28:04,VALID,1007.21,VALID,0,VALID,89.7704,VALID,0.105969,VALID,23.7099,VALID,55,VALID,0,
2009-05-24, 01:29:04,VALID,1007.19,VALID,0,VALID,89.7932,VALID,0.105969,VALID,23.7117,VALID,55,VALID,0,
2009-05-24, 01:30:04,VALID,1007.21,VALID,0,VALID,89.8009,VALID,0,VALID,23.733,VALID,55,VALID,0,
2009-05-24, 01:31:04,VALID,1007.17,VALID,0,VALID,89.8161,VALID,0,VALID,23.7348,VALID,55,VALID,0,
2009-05-24, 01:32:04,VALID,1007.19,VALID,0,VALID,89.8238,VALID,0,VALID,23.694,VALID,55,VALID,0,
2009-05-24, 01:33:04,VALID,1007.15,VALID,0,VALID,89.839,VALID,0,VALID,23.7135,VALID,55,VALID,0,
2009-05-24, 01:34:04,VALID,1007.17,VALID,0,VALID,89.839,VALID,0,VALID,23.733,VALID,55,VALID,0,
2009-05-24, 01:35:04,VALID,1007.13,VALID,0,VALID,89.839,VALID,0,VALID,23.694,VALID,55,VALID,0,
2009-05-24, 01:36:04,VALID,1007.12,VALID,0,VALID,89.8619,VALID,0,VALID,23.694,VALID,55,VALID,0,
2009-05-24, 01:37:04,VALID,1007.11,VALID,0,VALID,89.8619,VALID,0,VALID,23.6745,VALID,55,VALID,0,
2009-05-24, 01:38:04,VALID,1007.12,VALID,0,VALID,89.8543,VALID,0,VALID,23.6745,VALID,55,VALID,0,
2009-05-24, 01:39:04,VALID,1007.1,VALID,0,VALID,89.8619,VALID,0,VALID,23.6745,VALID,55,VALID,0,
2009-05-24, 01:40:04,VALID,1007.11,VALID,0,VALID,89.8695,VALID,0,VALID,23.6745,VALID,55,VALID,0,
2009-05-24, 01:41:04,VALID,1007.12,VALID,0,VALID,89.9076,VALID,0,VALID,23.7153,VALID,55,VALID,0,
2009-05-24, 01:42:04,VALID,1007.1,VALID,0,VALID,89.9153,VALID,0,VALID,23.7135,VALID,55,VALID,0,
2009-05-24, 01:43:04,VALID,1007.11,VALID,0,VALID,89.9305,VALID,0,VALID,23.7135,VALID,55,VALID,0,
2009-05-24, 01:44:04,VALID,1007.13,VALID,0,VALID,89.9534,VALID,0,VALID,23.7135,VALID,55,VALID,0,
2009-05-24, 01:45:04,VALID,1007.1,VALID,0,VALID,89.9305,VALID,0,VALID,23.655,VALID,55,VALID,0,
2009-05-24, 01:46:04,VALID,1007.09,VALID,0,VALID,89.9381,VALID,0,VALID,23.6356,VALID,55,VALID,0,
2009-05-24, 01:47:04,VALID,1007.08,VALID,0,VALID,89.9229,VALID,0,VALID,23.6161,VALID,55,VALID,0,
2009-05-24, 01:48:04,VALID,1007.06,VALID,0,VALID,89.9381,VALID,0,VALID,23.6356,VALID,55,VALID,0,
2009-05-24, 01:49:04,VALID,1007.07,VALID,0,VALID,89.9229,VALID,0,VALID,23.6356,VALID,55,VALID,0,
2009-05-24, 01:50:04,VALID,1007.08,VALID,0,VALID,89.9458,VALID,0,VALID,23.655,VALID,55,VALID,0,
2009-05-24, 01:51:04,VALID,1007.09,VALID,0,VALID,89.9839,VALID,0,VALID,23.655,VALID,55,VALID,0,
2009-05-24, 01:52:04,VALID,1007.09,VALID,0,VALID,89.9763,VALID,0,VALID,23.655,VALID,55,VALID,0,
2009-05-24, 01:53:04,VALID,1007.08,VALID,0,VALID,89.9915,VALID,0,VALID,23.6143,VALID,55,VALID,0,
2009-05-24, 01:54:04,VALID,1007.05,VALID,0,VALID,89.961,VALID,0,VALID,23.5966,VALID,55,VALID,0,
2009-05-24, 01:55:04,VALID,1007.06,VALID,0,VALID,89.961,VALID,0,VALID,23.5771,VALID,55,VALID,0,
2009-05-24, 01:56:04,VALID,1007.07,VALID,0,VALID,89.961,VALID,0,VALID,23.5576,VALID,55,VALID,0,
2009-05-24, 01:57:04,VALID,1007.02,VALID,0,VALID,89.9534,VALID,0,VALID,23.5381,VALID,55,VALID,0,
2009-05-24, 01:58:04,VALID,1007.01,VALID,0,VALID,89.9686,VALID,0,VALID,23.5576,VALID,55,VALID,0,
2009-05-24, 01:59:04,VALID,1006.98,VALID,0,VALID,89.9686,VALID,0,VALID,23.5363,VALID,55,VALID,0,
2009-05-24, 02:00:04,VALID,1006.93,VALID,0,VALID,89.9839,VALID,0,VALID,23.5558,VALID,55,VALID,0,
2009-05-24, 02:01:04,VALID,1006.92,VALID,0,VALID,89.9915,VALID,0,VALID,23.5558,VALID,55,VALID,0,
2009-05-24, 02:02:04,VALID,1006.89,VALID,0,VALID,89.9839,VALID,0,VALID,23.5363,VALID,55,VALID,0,
2009-05-24, 02:03:04,VALID,1006.87,VALID,0,VALID,89.9915,VALID,0,VALID,23.5363,VALID,55,VALID,0,
2009-05-24, 02:04:04,VALID,1006.9,VALID,0,VALID,90.0144,VALID,0,VALID,23.5363,VALID,55,VALID,0,
2009-05-24, 02:05:04,VALID,1006.9,VALID,0,VALID,90.0144,VALID,0,VALID,23.5363,VALID,55,VALID,0,
2009-05-24, 02:06:04,VALID,1006.9,VALID,0,VALID,90.0068,VALID,0,VALID,23.5169,VALID,55,VALID,0,
2009-05-24, 02:07:04,VALID,1006.89,VALID,0,VALID,90.0144,VALID,0,VALID,23.5169,VALID,55,VALID,0,
2009-05-24, 02:08:04,VALID,1006.9,VALID,0,VALID,90.022,VALID,0,VALID,23.4974,VALID,55,VALID,0,
2009-05-24, 02:09:04,VALID,1006.89,VALID,0,VALID,90.0296,VALID,0,VALID,23.5186,VALID,55,VALID,0,
2009-05-24, 02:10:04,VALID,1006.85,VALID,0,VALID,90.0296,VALID,0,VALID,23.4779,VALID,55,VALID,0,
2009-05-24, 02:11:04,VALID,1006.84,VALID,0,VALID,90.0373,VALID,0,VALID,23.4779,VALID,55,VALID,0,
2009-05-24, 02:12:04,VALID,1006.84,VALID,0,VALID,90.0525,VALID,0.105969,VALID,23.4779,VALID,55,VALID,0,
2009-05-24, 02:13:04,VALID,1006.83,VALID,0,VALID,90.0449,VALID,0,VALID,23.4974,VALID,55,VALID,0,
2009-05-24, 02:14:04,VALID,1006.82,VALID,0,VALID,90.0449,VALID,0,VALID,23.4974,VALID,55,VALID,0,
2009-05-24, 02:15:04,VALID,1006.83,VALID,0,VALID,90.0678,VALID,0,VALID,23.5169,VALID,55,VALID,0,
2009-05-24, 02:16:04,VALID,1006.85,VALID,0,VALID,90.0678,VALID,0,VALID,23.5576,VALID,55,VALID,0,
2009-05-24, 02:17:04,VALID,1006.83,VALID,0,VALID,90.083,VALID,0,VALID,23.5169,VALID,55,VALID,0,
2009-05-24, 02:18:04,VALID,1006.83,VALID,0,VALID,90.083,VALID,0,VALID,23.5169,VALID,55,VALID,0,
2009-05-24, 02:19:04,VALID,1006.82,VALID,0,VALID,90.0907,VALID,0,VALID,23.5186,VALID,55,VALID,0,
2009-05-24, 02:20:04,VALID,1006.85,VALID,0,VALID,90.0983,VALID,0,VALID,23.5186,VALID,55,VALID,0,
2009-05-24, 02:21:04,VALID,1006.82,VALID,0,VALID,90.0907,VALID,0,VALID,23.4992,VALID,55,VALID,0,
2009-05-24, 02:22:04,VALID,1006.84,VALID,0,VALID,90.1059,VALID,0.105969,VALID,23.4779,VALID,55,VALID,0,
2009-05-24, 02:23:04,VALID,1006.81,VALID,0,VALID,90.0907,VALID,0,VALID,23.4992,VALID,55,VALID,0,
2009-05-24, 02:24:04,VALID,1006.83,VALID,0,VALID,90.0907,VALID,0,VALID,23.4779,VALID,55,VALID,0,
2009-05-24, 02:25:04,VALID,1006.83,VALID,0,VALID,90.083,VALID,0,VALID,23.4974,VALID,55,VALID,0,
2009-05-24, 02:26:04,VALID,1006.83,VALID,0,VALID,90.083,VALID,0,VALID,23.4992,VALID,55,VALID,0,
2009-05-24, 02:27:04,VALID,1006.84,VALID,0,VALID,90.0983,VALID,0,VALID,23.4779,VALID,55,VALID,0,
2009-05-24, 02:28:04,VALID,1006.81,VALID,0,VALID,90.0754,VALID,0,VALID,23.4974,VALID,55,VALID,0,
2009-05-24, 02:29:04,VALID,1006.79,VALID,0,VALID,90.0678,VALID,0,VALID,23.5186,VALID,55,VALID,0,
2009-05-24, 02:30:04,VALID,1006.8,VALID,0,VALID,90.0754,VALID,0,VALID,23.5381,VALID,55,VALID,0,
2009-05-24, 02:31:04,VALID,1006.76,VALID,0,VALID,90.0449,VALID,0,VALID,23.5363,VALID,55,VALID,0,
2009-05-24, 02:32:04,VALID,1006.75,VALID,0,VALID,90.0449,VALID,0,VALID,23.5169,VALID,55,VALID,0,
2009-05-24, 02:33:04,VALID,1006.72,VALID,0,VALID,90.0525,VALID,0,VALID,23.5169,VALID,55,VALID,0,
2009-05-24, 02:34:04,VALID,1006.71,VALID,0,VALID,90.0296,VALID,0,VALID,23.5576,VALID,55,VALID,0,
2009-05-24, 02:35:04,VALID,1006.67,VALID,0,VALID,90.0296,VALID,0,VALID,23.5363,VALID,55,VALID,0,
2009-05-24, 02:36:04,VALID,1006.66,VALID,0,VALID,90.0296,VALID,0,VALID,23.5558,VALID,55,VALID,0,
2009-05-24, 02:37:04,VALID,1006.65,VALID,0,VALID,90.022,VALID,0,VALID,23.5558,VALID,55,VALID,0,
2009-05-24, 02:38:04,VALID,1006.65,VALID,0,VALID,90.0144,VALID,0,VALID,23.5576,VALID,55,VALID,0,
2009-05-24, 02:39:04,VALID,1006.67,VALID,0,VALID,90.022,VALID,0.105969,VALID,23.5558,VALID,55,VALID,0,
2009-05-24, 02:40:04,VALID,1006.66,VALID,0,VALID,90.022,VALID,0,VALID,23.5363,VALID,55,VALID,0,
2009-05-24, 02:41:04,VALID,1006.67,VALID,0,VALID,90.0068,VALID,0,VALID,23.5558,VALID,55,VALID,0,
2009-05-24, 02:42:04,VALID,1006.65,VALID,0,VALID,90.0068,VALID,0,VALID,23.5558,VALID,55,VALID,0,
2009-05-24, 02:43:04,VALID,1006.6,VALID,0,VALID,90.0068,VALID,0,VALID,23.5771,VALID,55,VALID,0,
2009-05-24, 02:44:04,VALID,1006.58,VALID,0,VALID,89.9991,VALID,0,VALID,23.5558,VALID,54,VALID,0,
2009-05-24, 02:45:04,VALID,1006.56,VALID,0,VALID,89.9686,VALID,0,VALID,23.5576,VALID,55,VALID,0,
2009-05-24, 02:46:04,VALID,1006.54,VALID,0,VALID,89.9534,VALID,0,VALID,23.5169,VALID,55,VALID,0,
2009-05-24, 02:47:04,VALID,1006.5,VALID,0,VALID,89.9381,VALID,0.105969,VALID,23.5169,VALID,54,VALID,0,
2009-05-24, 02:48:04,VALID,1006.52,VALID,0,VALID,89.9534,VALID,0,VALID,23.5169,VALID,55,VALID,0,
2009-05-24, 02:49:04,VALID,1006.51,VALID,0,VALID,89.9381,VALID,0,VALID,23.4974,VALID,54,VALID,0,
2009-05-24, 02:50:04,VALID,1006.51,VALID,0,VALID,89.9229,VALID,0,VALID,23.4779,VALID,54,VALID,0,
2009-05-24, 02:51:04,VALID,1006.5,VALID,0,VALID,89.9076,VALID,0,VALID,23.4779,VALID,55,VALID,0,
2009-05-24, 02:52:04,VALID,1006.5,VALID,0,VALID,89.9153,VALID,0,VALID,23.4779,VALID,55,VALID,0,
2009-05-24, 02:53:04,VALID,1006.48,VALID,0,VALID,89.9229,VALID,0,VALID,23.4779,VALID,54,VALID,0,
2009-05-24, 02:54:04,VALID,1006.46,VALID,0,VALID,89.8848,VALID,0,VALID,23.4974,VALID,55,VALID,0,
2009-05-24, 02:55:04,VALID,1006.43,VALID,0,VALID,89.9076,VALID,0,VALID,23.5186,VALID,54,VALID,0,
2009-05-24, 02:56:04,VALID,1006.44,VALID,0,VALID,89.8771,VALID,0.105969,VALID,23.4974,VALID,52,VALID,0,
2009-05-24, 02:57:04,VALID,1006.44,VALID,0,VALID,89.8619,VALID,0.105969,VALID,23.4974,VALID,41,VALID,0,
2009-05-24, 02:58:04,VALID,1006.43,VALID,0,VALID,89.839,VALID,0,VALID,23.5186,VALID,41,VALID,0,
2009-05-24, 02:59:04,VALID,1006.42,VALID,0,VALID,89.8238,VALID,0.105969,VALID,23.4974,VALID,41,VALID,0,
2009-05-24, 03:00:04,VALID,1006.42,VALID,0,VALID,89.8085,VALID,0,VALID,23.4974,VALID,41,VALID,0,
2009-05-24, 03:01:04,VALID,1006.44,VALID,0,VALID,89.778,VALID,0,VALID,23.4992,VALID,41,VALID,0,
2009-05-24, 03:02:04,VALID,1006.44,VALID,0,VALID,89.7704,VALID,0,VALID,23.4992,VALID,41,VALID,0,
2009-05-24, 03:03:04,VALID,1006.45,VALID,0,VALID,89.7551,VALID,0,VALID,23.4992,VALID,41,VALID,0,
2009-05-24, 03:04:04,VALID,1006.45,VALID,0,VALID,89.7627,VALID,0,VALID,23.4797,VALID,41,VALID,0,
2009-05-24, 03:05:04,VALID,1006.42,VALID,0,VALID,89.7551,VALID,0,VALID,23.4797,VALID,41,VALID,0,
2009-05-24, 03:06:04,VALID,1006.43,VALID,0,VALID,89.7551,VALID,0,VALID,23.4797,VALID,41,VALID,0,
2009-05-24, 03:07:04,VALID,1006.42,VALID,0,VALID,89.7322,VALID,0,VALID,23.4797,VALID,41,VALID,0,
2009-05-24, 03:08:04,VALID,1006.44,VALID,0,VALID,89.7475,VALID,0.105969,VALID,23.4779,VALID,41,VALID,0,
2009-05-24, 03:09:04,VALID,1006.45,VALID,0,VALID,89.7627,VALID,0,VALID,23.4779,VALID,41,VALID,0,
2009-05-24, 03:10:04,VALID,1006.44,VALID,0,VALID,89.7551,VALID,0,VALID,23.5186,VALID,41,VALID,0,
2009-05-24, 03:11:04,VALID,1006.44,VALID,0,VALID,89.7704,VALID,0,VALID,23.4779,VALID,41,VALID,0,
2009-05-24, 03:12:04,VALID,1006.45,VALID,0,VALID,89.7856,VALID,0,VALID,23.4779,VALID,41,VALID,0,
2009-05-24, 03:13:04,VALID,1006.43,VALID,0,VALID,89.7856,VALID,0,VALID,23.5186,VALID,41,VALID,0,
2009-05-24, 03:14:04,VALID,1006.43,VALID,0,VALID,89.7704,VALID,0,VALID,23.4779,VALID,41,VALID,0,
2009-05-24, 03:15:04,VALID,1006.4,VALID,0,VALID,89.778,VALID,0.105969,VALID,23.4779,VALID,41,VALID,0,
2009-05-24, 03:16:04,VALID,1006.44,VALID,0,VALID,89.7704,VALID,0.105969,VALID,23.4779,VALID,41,VALID,0,
2009-05-24, 03:17:04,VALID,1006.49,VALID,0,VALID,89.7704,VALID,0.105969,VALID,23.4974,VALID,41,VALID,0,
2009-05-24, 03:18:04,VALID,1006.46,VALID,0,VALID,89.778,VALID,0.105969,VALID,23.5169,VALID,41,VALID,0,
2009-05-24, 03:19:04,VALID,1006.46,VALID,0,VALID,89.7932,VALID,0.105969,VALID,23.5558,VALID,41,VALID,0,
2009-05-24, 03:20:04,VALID,1006.46,VALID,0,VALID,89.7856,VALID,0.105969,VALID,23.5558,VALID,41,VALID,0,
2009-05-24, 03:21:04,VALID,1006.46,VALID,0,VALID,89.778,VALID,0,VALID,23.5558,VALID,41,VALID,0,
2009-05-24, 03:22:04,VALID,1006.4,VALID,0,VALID,89.7627,VALID,0.105969,VALID,23.5558,VALID,41,VALID,0,
2009-05-24, 03:23:04,VALID,1006.4,VALID,0,VALID,89.7399,VALID,0.105969,VALID,23.5363,VALID,41,VALID,0,
2009-05-24, 03:24:04,VALID,1006.35,VALID,0,VALID,89.7246,VALID,0.105969,VALID,23.5363,VALID,41,VALID,0,
2009-05-24, 03:25:04,VALID,1006.34,VALID,0,VALID,89.7017,VALID,0.105969,VALID,23.5363,VALID,41,VALID,0,
2009-05-24, 03:26:04,VALID,1006.34,VALID,0,VALID,89.6865,VALID,0.105969,VALID,23.5169,VALID,41,VALID,0,
2009-05-24, 03:27:04,VALID,1006.31,VALID,0,VALID,89.6865,VALID,0,VALID,23.4974,VALID,41,VALID,0,
2009-05-24, 03:28:04,VALID,1006.31,VALID,0,VALID,89.6712,VALID,0.105969,VALID,23.4974,VALID,73,VALID,0,
2009-05-24, 03:29:04,VALID,1006.29,VALID,0,VALID,89.656,VALID,0,VALID,23.5186,VALID,76,VALID,0,
2009-05-24, 03:30:04,VALID,1006.27,VALID,0,VALID,89.6407,VALID,0.105969,VALID,23.4956,VALID,77,VALID,0,
2009-05-24, 03:31:04,VALID,1006.25,VALID,0,VALID,89.6179,VALID,0.105969,VALID,23.4974,VALID,77,VALID,0,
2009-05-24, 03:32:04,VALID,1006.25,VALID,0,VALID,89.5492,VALID,0.105969,VALID,23.4974,VALID,77,VALID,0,
2009-05-24, 03:33:04,VALID,1006.24,VALID,0,VALID,89.5263,VALID,0.105969,VALID,23.4974,VALID,77,VALID,0,
2009-05-24, 03:34:04,VALID,1006.25,VALID,0,VALID,89.5035,VALID,0.105969,VALID,23.4779,VALID,77,VALID,0,
2009-05-24, 03:35:04,VALID,1006.26,VALID,0,VALID,89.4806,VALID,0.105969,VALID,23.4974,VALID,77,VALID,0,
2009-05-24, 03:36:04,VALID,1006.29,VALID,0,VALID,89.4501,VALID,0.105969,VALID,23.4779,VALID,77,VALID,0,
2009-05-24, 03:37:04,VALID,1006.29,VALID,0,VALID,89.4272,VALID,0,VALID,23.4779,VALID,77,VALID,0,
2009-05-24, 03:38:04,VALID,1006.32,VALID,0,VALID,89.4043,VALID,0.105969,VALID,23.4779,VALID,77,VALID,0,
2009-05-24, 03:39:04,VALID,1006.33,VALID,0,VALID,89.3815,VALID,0,VALID,23.4779,VALID,77,VALID,0,
2009-05-24, 03:40:04,VALID,1006.37,VALID,0,VALID,89.3662,VALID,0.105969,VALID,23.4779,VALID,102,VALID,0,
2009-05-24, 03:41:04,VALID,1006.35,VALID,0,VALID,89.3052,VALID,0.105969,VALID,23.4584,VALID,102,VALID,0,
2009-05-24, 03:42:04,VALID,1006.37,VALID,0,VALID,89.2671,VALID,0.105969,VALID,23.4779,VALID,112,VALID,0.0917969,
2009-05-24, 03:43:04,VALID,1006.36,VALID,0,VALID,89.2289,VALID,0.105969,VALID,23.4974,VALID,91,VALID,0.487109,
2009-05-24, 03:44:04,VALID,1006.39,VALID,0,VALID,89.1603,VALID,0,VALID,23.5363,VALID,87,VALID,0.2625,
2009-05-24, 03:45:04,VALID,1006.39,VALID,0,VALID,89.1146,VALID,0.105969,VALID,23.5363,VALID,85,VALID,0.348828,
2009-05-24, 03:46:04,VALID,1006.41,VALID,0,VALID,89.0383,VALID,0,VALID,23.5363,VALID,85,VALID,0.0539063,
2009-05-24, 03:47:04,VALID,1006.4,VALID,0,VALID,88.9697,VALID,0.105969,VALID,23.5363,VALID,92,VALID,0.536719,
2009-05-24, 03:48:04,VALID,1006.4,VALID,0,VALID,88.9087,VALID,0.105969,VALID,23.5363,VALID,92,VALID,0.235156,
2009-05-24, 03:49:04,VALID,1006.4,VALID,0,VALID,88.84,VALID,0,VALID,23.5558,VALID,92,VALID,0,
2009-05-24, 03:50:04,VALID,1006.44,VALID,0,VALID,88.7943,VALID,0.105969,VALID,23.5576,VALID,92,VALID,0,
2009-05-24, 03:51:04,VALID,1006.43,VALID,0,VALID,88.7485,VALID,0.105969,VALID,23.5346,VALID,92,VALID,0,
2009-05-24, 03:52:04,VALID,1006.4,VALID,0,VALID,88.718,VALID,0.105969,VALID,23.5363,VALID,92,VALID,0,
2009-05-24, 03:53:04,VALID,1006.4,VALID,0,VALID,88.6875,VALID,0.105969,VALID,23.5381,VALID,92,VALID,0,
2009-05-24, 03:54:04,VALID,1006.43,VALID,0,VALID,88.7028,VALID,0.105969,VALID,23.5169,VALID,92,VALID,0,
2009-05-24, 03:55:04,VALID,1006.42,VALID,0,VALID,88.7485,VALID,0.105969,VALID,23.5169,VALID,55,VALID,0,
2009-05-24, 03:56:04,VALID,1006.41,VALID,0,VALID,88.7638,VALID,0.105969,VALID,23.4974,VALID,18,VALID,0,
2009-05-24, 03:57:04,VALID,1006.41,VALID,0,VALID,88.8172,VALID,0.105969,VALID,23.4566,VALID,18,VALID,0,